Погода в Смоленском

Россия / Алтайский край     52°18′09″N   85°04′52″E
темп.,
°C
ветер,
м/с
пор.,
м/с
влажн.,
%
обл.,
%
осадки,
мм/ч
давл.,
гПа
погр.,
м
16 мая, вс
вс1601:00+14ююз33635 0.0 102031
04:00+13юз22685 0.0 102024
07:00+14ююз35695 0.0 1019112
10:00+22зюз574019 0.0 1018944
13:00+25зюз783363 0.0 10161600
16:00+26зюз78333 0.0 10142152
19:00+24зюз712435 0.0 1013708
22:00+19юз495311 0.2 1013191
17 мая, пн
пн1701:00+15зюз237041 0.8 101340
04:00+15зюз4107977 0.5 1012222
07:00+15зюз4107957 0.6 1014350
10:00+19зюз676850 0.4 1015959
13:00+21з566053 1.4 10141392
16:00+21зсз676298 1.2 10141225
19:00+20з356656 2.5 1015474
22:00+16юз34815 0.2 101651
18 мая, вт
вт1801:00+14ююз22845 0.2 101521
04:00+13ююз348371 0.0 101455
07:00+15ююз387878 0.1 1013171
10:00+22юз711515 0.4 10101064
13:00+25зюз9114423 0.4 10091514
16:00+27зюз8104278 0.0 10052452
19:00+20зюз111762100 1.7 1005580
22:00+17зюз513788 0.8 1006304
19 мая, ср
ср1901:00+15зюз4118299 1.3 1006245
04:00+14зюз2490100 0.7 100573
07:00+15юз3689100 2.1 1004234
10:00+15з6109266 2.1 1004620
13:00+18сз357074 3.1 10041132
16:00+12с5794100 5.5 1003442
19:00+10ссв4781100 8.1 1010841
22:00+9ссз247275 0.1 1012170
20 мая, чт
чт2001:00+5ссз34780 0.1 101384
04:00+4з11835 0.0 101414
07:00+5з227799 0.0 1016123
10:00+8зсз3354100 0.0 10161508
13:00+8зсз676085 0.1 10161474
16:00+10зсз685190 0.6 10162191
19:00+9ссз476282 1.3 10181295
22:00+5ссв1267100 0.3 102115